|
NORAD ID: 38339 Int'l Code: 2012-025C
Perigee: 668.3 km
Apogee: 678.4 km
Inclination: 98.2 °
Period: 98.1 minutes
Semi major axis: 7044 km
Launch date: May 17, 2012
Source: Japan (JPN)
Two Line Element Set (TLE):
1 38339U 12025C 13140.84472166 .00001300 00000-0 23343-3 0 4934
2 38339 098.2126 086.9103 0007188 301.7877 058.2626 14.68381353 54000
Source:
NASA's NSSDC Master Catalog entry for SDS-4
|